Location: Castiglione Fibocchi
(43.5333°N, 11.7667°E)
Time: 18:18:22
(UTC+00:00)

NOSS 2-2 (D) - Pass Details

Date: 15 August 2020
Orbit: 469 x 1739 km, 63.3° (Epoch: 17 September)

Event Time Altitude Azimuth Distance (km) Brightness Sun altitude
Exits shadow 03:22:57 14° 243° (WSW) 1,387 4.7 -9.9°
Maximum altitude 03:25:41 43° 313° (NW) 693 3.7 -9.4°
Drops below altitude 10° 03:29:25 10° 26° (NNE) 1,809 6.9 -8.8°
Sets 03:31:54 0° 33° (NNE) 2,837 8.2 -8.5°
